Back to catalog

DELTA 1 DEB

AliveLEO
NORAD 7184·DEBRIS·🇺🇸 United States

Launched Nov 6, 1973 from Vandenberg Space Force Base

Loading…

Next Passes (next 24 hours)

TLE

FreshSource: Space-Track

Epoch: Sep 14, 2026, 11:32 UTC

1 07184U 73086EV  26257.48077328  .00000710  00000-0  21525-2 0  9990
2 07184 102.3035 251.7534 0192505  13.0364 140.7937 13.05428019494980

Track DELTA 1 DEB in real time with AllMySat

Download on the App Store